Location: Goudex
(43.3760°N, 0.9543°E)
Time: 10:09:17
(UTC+00:00)

Gbstr 26 Del rocket - Pass Details

Date: 20 November 2019
Orbit: 493 x 1264 km, 51.8° (Epoch: 09 December)

Event Time Altitude Azimuth Distance (km) Brightness Sun altitude
Exits shadow 05:38:46 18° 321° (NW) 1,275 4.2 -13.9°
Maximum altitude 05:40:17 23° 355° (N) 1,091 4.1 -13.6°
Drops below altitude 10° 05:43:20 10° 50° (NE) 1,696 5.8 -13.0°
Sets 05:45:52 0° 66° (ENE) 2,611 7.1 -12.6°
